Location: Roland
(31.1349°N, 85.4372°W)
Time: 17:25:36
(UTC+00:00)

Transit 2A - Pass Details

Date: 27 April 2021
Orbit: 602 x 957 km, 66.7° (Epoch: 16 May)

Event Time Altitude Azimuth Distance (km) Brightness Sun altitude
Rises 10:28:07 0° 205° (SSW) 3,161 8.8 -7.4°
Reaches altitude 10° 10:30:34 10° 206° (SSW) 2,185 7.9 -6.9°
Maximum altitude 10:35:30 85° 296° (WNW) 673 5.7 -5.9°
Drops below altitude 10° 10:40:02 10° 24° (NNE) 2,016 8.9 -5.0°
Sets 10:42:14 0° 25° (NNE) 2,897 9.7 -4.6°
